DW4554 Weather Reports


time (UTC)temp
C
wind
direction
speed
KPH
gust
KPH
rain 1hr
cm
rain 24hr
cm
rain mn
cm
humidity
%
barometer
mb
20260507095404 20 203 8.0 14.5 0.00 0.00 0.00 64 1009.4
20260507094904 20 198 8.0 14.5 0.00 0.00 0.00 64 1009.2
20260507094404 20 221 9.7 19.3 0.00 0.00 0.00 65 1009.2
20260507093405 20 186 4.8 14.5 0.00 0.00 0.00 64 1009.2
20260507092904 20 195 6.4 19.3 0.00 0.00 0.00 65 1009.1
20260507091904 20 205 4.8 14.5 0.00 0.00 0.00 66 1009.1
20260507091404 20 189 3.2 11.3 0.00 0.00 0.00 67 1009.0
20260507090904 19 241 9.7 16.1 0.00 0.00 0.00 68 1008.9
20260507090404 19 175 4.8 12.9 0.00 0.00 0.00 69 1008.9
20260507085905 18 188 1.6 9.7 0.00 0.00 0.00 70 1008.9
20260507085404 18 218 3.2 9.7 0.00 0.00 0.00 70 1008.9
20260507084404 18 201 4.8 11.3 0.00 0.00 0.00 70 1008.8
20260507083904 18 206 4.8 12.9 0.00 0.00 0.00 70 1008.8
20260507083404 18 186 4.8 11.3 0.00 0.00 0.00 71 1008.7
20260507082404 18 216 4.8 8.0 0.00 0.00 0.00 69 1008.7
20260507081905 18 205 4.8 9.7 0.00 0.00 0.00 70 1008.7
20260507081404 18 229 6.4 12.9 0.00 0.00 0.00 69 1008.6
20260507080405 18 190 0.0 4.8 0.00 0.00 0.00 69 1008.6
20260507075904 18 193 3.2 11.3 0.00 0.00 0.00 70 1008.6
20260507075404 18 228 6.4 11.3 0.00 0.00 0.00 71 1008.6
20260507074905 18 248 4.8 12.9 0.00 0.00 0.00 72 1008.6
20260507074404 18 229 8.0 16.1 0.00 0.00 0.00 71 1008.6
20260507073904 17 222 8.0 14.5 0.00 0.00 0.00 72 1008.6
20260507073404 17 246 4.8 11.3 0.00 0.00 0.00 73 1008.6
20260507072905 17 233 3.2 8.0 0.00 0.00 0.00 74 1008.6
20260507071405 16 175 1.6 8.0 0.00 0.00 0.00 75 1008.5
20260507070904 16 209 8.0 12.9 0.00 0.00 0.00 76 1008.5
20260507070404 16 192 3.2 11.3 0.00 0.00 0.00 76 1008.4
20260507065904 16 198 6.4 12.9 0.00 0.00 0.00 77 1008.4
20260507065404 16 184 4.8 8.0 0.00 0.00 0.00 77 1008.4
20260507064904 16 168 4.8 11.3 0.00 0.00 0.00 77 1008.4
20260507064404 16 203 3.2 12.9 0.00 0.00 0.00 77 1008.4
20260507063904 16 207 4.8 11.3 0.00 0.00 0.00 77 1008.4
20260507063404 16 213 3.2 9.7 0.00 0.00 0.00 77 1008.4
20260507062904 16 166 6.4 11.3 0.00 0.00 0.00 78 1008.5
20260507061905 16 152 4.8 11.3 0.00 0.00 0.00 78 1008.1
20260507061405 15 233 3.2 9.7 0.00 0.00 0.00 78 1008.0
20260507060904 15 211 3.2 4.8 0.00 0.00 0.00 79 1007.9
20260507060404 15 207 1.6 4.8 0.00 0.00 0.00 79 1007.9
20260507055919 15 207 1.6 4.8 0.00 0.00 0.00 79 1007.9
20260507055404 15 207 3.2 9.7 0.00 0.00 0.00 79 1007.8
20260507054905 15 189 1.6 8.0 0.00 0.00 0.00 79 1007.8
20260507054404 15 185 3.2 9.7 0.00 0.00 0.00 79 1007.7
20260507053904 15 206 4.8 11.3 0.00 0.00 0.00 79 1007.7
20260507053404 15 189 8.0 12.9 0.00 0.00 0.00 79 1007.7
20260507052405 15 190 4.8 11.3 0.00 0.00 0.00 79 1007.6
20260507051904 15 232 3.2 14.5 0.00 0.00 0.00 79 1007.6
20260507051405 15 213 4.8 12.9 0.00 0.00 0.00 79 1007.6
20260507050904 15 214 4.8 11.3 0.00 0.00 0.00 79 1007.5
20260507050404 15 205 3.2 9.7 0.00 0.00 0.00 79 1007.4
20260507045405 15 194 3.2 11.3 0.00 0.00 0.00 79 1007.2
20260507043905 15 188 1.6 4.8 0.00 0.00 0.00 79 1007.1
20260507043404 15 188 3.2 11.3 0.00 0.00 0.00 79 1007.1
20260507042904 15 165 1.6 8.0 0.00 0.00 0.00 79 1007.1
20260507042404 15 142 1.6 8.0 0.00 0.00 0.00 79 1007.0
20260507041905 15 138 1.6 9.7 0.00 0.00 0.00 79 1006.8
20260507041404 15 152 1.6 8.0 0.00 0.00 0.00 79 1006.8
20260507035904 15 67 1.6 4.8 0.00 0.00 0.00 79 1006.8
20260507035404 15 136 0.0 3.2 0.00 0.00 0.00 79 1006.6
20260507034905 15 136 1.6 3.2 0.00 0.00 0.00 78 1006.5
20260507034405 15 163 3.2 9.7 0.00 0.00 0.00 78 1006.5
20260507033904 15 174 3.2 8.0 0.00 0.00 0.00 78 1006.5
20260507033404 15 194 3.2 9.7 0.00 0.00 0.00 78 1006.3
20260507032904 15 117 3.2 11.3 0.00 0.00 0.00 78 1006.2
20260507032404 15 157 3.2 9.7 0.00 0.00 0.00 78 1006.2
20260507031905 15 194 3.2 9.7 0.00 0.00 0.00 78 1006.2
20260507031404 15 195 3.2 4.8 0.00 0.00 0.00 77 1006.1
20260507030904 15 207 3.2 11.3 0.00 0.00 0.00 77 1006.1
20260507030404 15 185 3.2 8.0 0.00 0.00 0.00 77 1006.2
20260507025904 15 235 4.8 11.3 0.00 0.00 0.00 77 1006.1
20260507025404 16 234 8.0 19.3 0.00 0.00 0.00 77 1006.1
20260507024405 16 118 1.6 9.7 0.00 0.00 0.00 76 1005.9
20260507023904 16 199 3.2 11.3 0.00 0.00 0.00 76 1005.9
20260507023404 16 178 3.2 14.5 0.00 0.00 0.00 76 1005.9
20260507022905 16 182 1.6 11.3 0.00 0.00 0.00 76 1005.8
20260507022404 16 219 4.8 12.9 0.00 0.00 0.00 76 1005.7
20260507020904 16 181 9.7 19.3 0.00 0.00 0.00 75 1005.5
20260507020404 16 163 9.7 19.3 0.00 0.00 0.00 74 1005.5
20260507015904 16 189 8.0 19.3 0.00 0.00 0.00 74 1005.4
20260507015405 16 183 9.7 22.5 0.00 0.00 0.00 74 1005.3
20260507014904 16 177 8.0 14.5 0.00 0.00 0.00 73 1005.3
20260507014404 16 177 4.8 16.1 0.00 0.00 0.00 73 1005.2
20260507013904 16 180 4.8 12.9 0.00 0.00 0.00 73 1005.2
20260507013404 16 185 4.8 16.1 0.00 0.00 0.00 73 1005.3
20260507012904 16 195 4.8 14.5 0.00 0.00 0.00 73 1005.3
20260507012404 16 157 3.2 11.3 0.00 0.00 0.00 73 1005.1
20260507011904 16 151 3.2 8.0 0.00 0.00 0.00 73 1005.1
20260507011405 16 136 1.6 8.0 0.00 0.00 0.00 73 1005.1
20260507010904 16 190 3.2 9.7 0.00 0.00 0.00 73 1005.0
20260507005904 16 165 4.8 12.9 0.00 0.00 0.00 73 1005.0
20260507005408 17 160 4.8 11.3 0.00 0.00 0.00 73 1004.9
20260507004405 17 160 6.4 14.5 0.00 0.00 0.00 73 1004.8
20260507003904 17 130 4.8 12.9 0.00 0.00 0.00 73 1004.7
20260507002904 17 155 4.8 12.9 0.00 0.00 0.00 73 1004.7
20260507002405 17 144 6.4 14.5 0.00 0.00 0.00 73 1004.8
20260507001904 17 143 1.6 16.1 0.00 0.00 0.00 72 1004.8
20260507001404 17 212 4.8 12.9 0.00 0.00 0.00 72 1004.8
20260507000904 17 116 4.8 11.3 0.00 0.00 0.00 72 1004.8
20260507000405 17 192 1.6 4.8 0.00 0.00 0.00 72 1004.7
20260506235904 17 302 1.6 4.8 0.00 0.00 0.00 72 1004.6
20260506234905 17 20 3.2 11.3 0.00 0.00 0.00 72 1004.7
20260506234404 17 105 4.8 11.3 0.00 0.00 0.00 72 1004.7
20260506233904 17 126 3.2 12.9 0.00 0.00 0.00 71 1004.8
20260506233404 17 193 3.2 9.7 0.00 0.00 0.00 71 1004.8
20260506232904 17 118 3.2 19.3 0.00 0.00 0.00 71 1004.6
20260506232404 17 145 4.8 12.9 0.00 0.00 0.00 71 1004.5
20260506230904 17 106 8.0 16.1 0.00 0.00 0.00 70 1004.5
20260506230404 17 105 9.7 20.9 0.00 0.00 0.00 70 1004.6
20260506225904 17 183 3.2 9.7 0.00 0.00 0.00 70 1004.6
20260506225404 17 134 3.2 8.0 0.00 0.00 0.00 70 1004.6
20260506224905 17 150 4.8 20.9 0.00 0.00 0.00 70 1004.6
20260506223905 17 143 4.8 16.1 0.00 0.00 0.00 69 1004.5
20260506223404 17 132 3.2 11.3 0.00 0.00 0.00 69 1004.4
20260506222905 17 178 6.4 14.5 0.00 0.00 0.00 69 1004.4
20260506222404 17 164 4.8 20.9 0.00 0.00 0.00 68 1004.4
20260506221904 18 159 3.2 12.9 0.00 0.00 0.00 68 1004.4
20260506221405 18 153 6.4 14.5 0.00 0.00 0.00 68 1004.2
20260506220405 18 177 11.3 32.2 0.00 0.00 0.00 67 1004.2
20260506215905 18 107 4.8 32.2 0.00 0.00 0.00 67 1004.3
20260506215404 18 149 4.8 22.5 0.00 0.00 0.00 67 1004.2
20260506214904 18 177 9.7 24.1 0.00 0.00 0.00 67 1004.2
20260506213404 18 153 3.2 24.1 0.00 0.00 0.00 66 1004.3
20260506212905 18 161 4.8 20.9 0.00 0.00 0.00 66 1004.2
20260506211904 18 192 9.7 19.3 0.00 0.00 0.00 65 1004.1
20260506211404 18 140 4.8 12.9 0.00 0.00 0.00 65 1004.1
20260506210904 18 132 4.8 11.3 0.00 0.00 0.00 65 1004.0
20260506210404 18 143 8.0 16.1 0.00 0.00 0.00 64 1004.0
20260506205904 18 168 6.4 16.1 0.00 0.00 0.00 64 1004.0
20260506205405 18 162 6.4 16.1 0.00 0.00 0.00 64 1004.0
20260506204905 18 155 4.8 11.3 0.00 0.00 0.00 64 1004.1
20260506203905 18 145 4.8 20.9 0.00 0.00 0.00 64 1004.0
20260506203405 19 109 1.6 9.7 0.00 0.00 0.00 63 1003.8
20260506202905 19 167 6.4 12.9 0.00 0.00 0.00 63 1003.8
20260506202404 19 191 6.4 14.5 0.00 0.00 0.00 63 1003.7
20260506201904 19 166 8.0 20.9 0.00 0.00 0.00 63 1003.7
20260506200904 19 153 0.0 8.0 0.00 0.00 0.00 62 1003.7
20260506195904 19 135 6.4 11.3 0.00 0.00 0.00 61 1003.7
20260506195404 20 150 3.2 9.7 0.00 0.00 0.00 61 1003.8
20260506194912 20 153 4.8 14.5 0.00 0.00 0.00 60 1003.8
20260506194404 20 149 1.6 8.0 0.00 0.00 0.00 60 1003.8
20260506193904 20 136 4.8 11.3 0.00 0.00 0.00 59 1003.8
20260506193407 20 144 8.0 19.3 0.00 0.00 0.00 59 1003.7
20260506192404 20 201 3.2 19.3 0.00 0.00 0.00 58 1003.8
20260506191905 20 158 4.8 11.3 0.00 0.00 0.00 58 1003.8
20260506191404 20 143 4.8 14.5 0.00 0.00 0.00 58 1003.7
20260506185904 20 168 3.2 12.9 0.00 0.00 0.00 56 1003.6
20260506185404 20 81 3.2 9.7 0.00 0.00 0.00 56 1003.4
20260506184904 20 87 4.8 9.7 0.00 0.00 0.00 56 1003.4
20260506184405 20 158 8.0 22.5 0.00 0.00 0.00 56 1003.4
20260506183904 21 168 3.2 9.7 0.00 0.00 0.00 55 1003.4
20260506183404 21 152 6.4 16.1 0.00 0.00 0.00 55 1003.2
20260506182904 21 153 3.2 12.9 0.00 0.00 0.00 55 1003.2
20260506182404 21 175 9.7 29.0 0.00 0.00 0.00 54 1003.2
20260506181905 21 154 3.2 20.9 0.00 0.00 0.00 55 1003.1
20260506181404 21 185 4.8 11.3 0.00 0.00 0.00 55 1003.0
20260506180404 21 190 3.2 12.9 0.00 0.00 0.00 54 1003.0
20260506175404 21 149 1.6 19.3 0.00 0.00 0.00 53 1002.9
20260506174904 21 151 6.4 19.3 0.00 0.00 0.00 53 1002.9
20260506174404 22 100 3.2 20.9 0.00 0.00 0.00 53 1003.0
20260506173904 22 138 1.6 14.5 0.00 0.00 0.00 52 1002.9
20260506173405 22 145 3.2 11.3 0.00 0.00 0.00 52 1002.9
20260506172904 22 117 0.0 9.7 0.00 0.00 0.00 51 1002.9
20260506172404 22 125 3.2 11.3 0.00 0.00 0.00 51 1003.0
20260506171904 22 157 3.2 8.0 0.00 0.00 0.00 51 1003.0
20260506171404 22 31 3.2 19.3 0.00 0.00 0.00 50 1003.0
20260506165905 22 193 8.0 19.3 0.00 0.00 0.00 50 1003.0
20260506164905 22 97 3.2 24.1 0.00 0.00 0.00 50 1003.2
20260506163904 22 111 3.2 11.3 0.00 0.00 0.00 50 1003.2
20260506163404 22 141 4.8 19.3 0.00 0.00 0.00 50 1003.3
20260506162404 22 144 3.2 19.3 0.00 0.00 0.00 51 1003.4
20260506161904 22 193 3.2 11.3 0.00 0.00 0.00 51 1003.5
20260506160905 23 104 3.2 11.3 0.00 0.00 0.00 51 1003.6
20260506160404 23 163 4.8 14.5 0.00 0.00 0.00 51 1003.6
20260506155904 23 86 6.4 24.1 0.00 0.00 0.00 52 1003.6
20260506155404 23 137 4.8 19.3 0.00 0.00 0.00 52 1003.7
20260506154904 23 148 3.2 12.9 0.00 0.00 0.00 52 1003.7
20260506154404 23 173 3.2 24.1 0.00 0.00 0.00 51 1003.7
20260506153405 23 117 4.8 11.3 0.00 0.00 0.00 51 1003.8
20260506152904 23 98 4.8 14.5 0.00 0.00 0.00 51 1004.0
20260506152404 23 173 4.8 9.7 0.00 0.00 0.00 52 1004.0
20260506151904 23 109 1.6 11.3 0.00 0.00 0.00 53 1004.0
20260506150404 23 135 4.8 22.5 0.00 0.00 0.00 52 1004.1
20260506145404 23 135 8.0 20.9 0.00 0.00 0.00 50 1004.2
20260506144905 23 124 4.8 20.9 0.00 0.00 0.00 51 1004.3
20260506144412 23 130 4.8 14.5 0.00 0.00 0.00 51 1004.3
20260506143904 23 201 9.7 24.1 0.00 0.00 0.00 51 1004.2
20260506142904 23 178 8.0 19.3 0.00 0.00 0.00 52 1004.4
20260506142404 23 175 6.4 19.3 0.00 0.00 0.00 51 1004.4
20260506141904 23 190 9.7 19.3 0.00 0.00 0.00 52 1004.5
20260506141404 23 119 4.8 12.9 0.00 0.00 0.00 52 1004.3
20260506140904 23 146 4.8 9.7 0.00 0.00 0.00 52 1004.4
20260506140404 23 113 6.4 19.3 0.00 0.00 0.00 52 1004.5
20260506134905 23 213 4.8 19.3 0.00 0.00 0.00 51 1004.7
20260506134404 23 139 4.8 14.5 0.00 0.00 0.00 51 1004.7
20260506133404 23 126 4.8 12.9 0.00 0.00 0.00 51 1004.8
20260506132905 24 153 9.7 19.3 0.00 0.00 0.00 50 1004.9
20260506132404 24 180 6.4 14.5 0.00 0.00 0.00 50 1004.9
20260506131904 24 136 9.7 14.5 0.00 0.00 0.00 51 1005.0
20260506130904 23 150 8.0 19.3 0.00 0.00 0.00 52 1005.0
20260506130405 23 184 8.0 25.7 0.00 0.00 0.00 51 1005.1
20260506125905 23 205 9.7 25.7 0.00 0.00 0.00 51 1005.2
20260506124904 23 209 9.7 27.4 0.00 0.00 0.00 51 1005.2
20260506124404 23 187 11.3 24.1 0.00 0.00 0.00 51 1005.2
20260506123904 24 183 8.0 24.1 0.00 0.00 0.00 51 1005.3
20260506122404 23 166 9.7 14.5 0.00 0.00 0.00 49 1005.3
20260506121904 23 178 3.2 16.1 0.00 0.00 0.00 50 1005.2
20260506121404 23 159 9.7 22.5 0.00 0.00 0.00 50 1005.3
20260506115904 23 203 8.0 19.3 0.00 0.00 0.00 49 1005.1
20260506115404 23 197 4.8 19.3 0.00 0.00 0.00 48 1005.1
20260506114904 23 185 11.3 19.3 0.00 0.00 0.00 50 1005.1
20260506114405 23 194 8.0 19.3 0.00 0.00 0.00 50 1005.1
20260506113904 23 220 6.4 11.3 0.00 0.00 0.00 50 1005.3
20260506113405 23 181 6.4 19.3 0.00 0.00 0.00 49 1005.3
20260506112904 23 222 8.0 20.9 0.00 0.00 0.00 50 1005.5
20260506112404 22 186 8.0 19.3 0.00 0.00 0.00 50 1005.5
20260506110904 22 220 6.4 16.1 0.00 0.00 0.00 52 1005.4
20260506110404 22 200 12.9 20.9 0.00 0.00 0.00 51 1005.5
20260506105904 22 218 9.7 24.1 0.00 0.00 0.00 51 1005.5
20260506104904 22 36 4.8 12.9 0.00 0.00 0.00 51 1005.5
20260506104404 22 203 8.0 14.5 0.00 0.00 0.00 52 1005.5
20260506103905 22 124 6.4 14.5 0.00 0.00 0.00 52 1005.6
20260506103404 22 174 6.4 14.5 0.00 0.00 0.00 52 1005.7
20260506102904 22 191 4.8 11.3 0.00 0.00 0.00 51 1005.7
20260506102404 22 135 6.4 12.9 0.00 0.00 0.00 50 1005.8
20260506101404 23 238 6.4 16.1 0.00 0.00 0.00 52 1005.8
20260506100904 22 202 4.8 9.7 0.00 0.00 0.00 52 1005.8
20260506100405 22 124 6.4 11.3 0.00 0.00 0.00 50 1005.9
20260506095904 22 117 4.8 16.1 0.00 0.00 0.00 51 1005.9